STARLINK-32856, 62819

Orbit data source: Space-Track

STARLINK-32856, 62819 is a payload satellite owned by SpaceX/Seattle (US) in LEO that was launched on Fri, 24 Jan 2025 UTC via an FALCON 9 launch vehicle from the Air Force Western Test Range (AFWTR). Payload-class satellites include a variety of spacecraft equipped with specific instruments for various scientific and technological missions. These include communications satellites like Starlink; space stations such as the ISS; scientific satellites like the Hubble; Earth observation satellites from companies like Planet Labs, Umbra, and HawkEye 360; GPS; miniature CubeSats for education and research; and military/defense satellites.

Loading next visibility...
Identifier
62819, 2025-018P
Orbit
LEO
Last TLE update
12 hours ago
Origin
Manufacturer
SpaceX/Seattle
Mission
Operational Commercial Communications
Bus & Motor
STARLINK V2M, Unknown motor
Mass
730 kg wet, ~700 kg dry
Launch date (UTC)
2025-01-24 (5 months ago)
Launch vehicle
FALCON 9
Launch site
Air Force Western Test Range (AFWTR)
Object type
Payload
Rocket body
Debris
Shape & HBR
Box + 2 Pan, 29 m
Radar Cross Section
33.884 m², Large (>1 m²)

Expand to show TLE details & history

TLE from 12 hours ago
0 STARLINK-32856
1 62819U 25018P   25181.86876008  .00016453  00000-0  56623-3 0  9996
2 62819  53.1606  39.2737 0001246  71.9561 288.1576 15.30209428 25471
Epoch: 2025-06-30T20:51Z
TLE epoch observation values (Epoch: 2025-06-30T20:51:00.87Z)
Latitude
-0°
Longitude
167.34769°
Altitude
475.821 km
Speed
7.629 km/s
True Right ascension
02h 37m 05s
True Declination
0° 00' 00"
Sunlit
Object was in daylight at epoch
Visualization orbit readout
Latitude
-14.29417°
Longitude
-4.00066°
Altitude
479.455 km
Speed
7.626 km/s
Apparent Right ascension
12h 28m 38s
Apparent Declination
-38° 13' 18"
Sunlit
Object is in full shadow
Visualization observer readout
Local Sidereal Time
20:19:10
Azimuth
250.921° W
Elevation
-42.568°
Doppler factor
1
Orbital elements
Apogee altitude
476.297 km
Perigee altitude
474.589 km
Semi-major axis
6,853.58 km
Eccentricity
0.00012
Inclination
53.1606°
RAAN
39.2737°
Arg. of periapsis
71.9561°
True anomaly
Unknown
Mean anomaly
288.1576°
Eccentric anomaly
Unknown
Mean motion
3.82531 °/min
Orbital period
94.11 mins
BSTAR
0.00056623
Loading maneuver chart data...
Loading SW <> Apogee altitude chart data...
Loading historical data...
Loading historical data...
Loading historical data...
Loading historical data...
Loading historical data...
Loading historical data...
Loading historical data...

STARLINK-32856 Visibility forecast

Observer location: undefined°, undefined°

Span
Click to sort rows by Start time (UTC) header in descending order
Start Az.
Max El. time (UTC)
Max El. Az.
Max El.
End time (UTC)
End Az.
5 mins2025-07-01 17:26:00.648Z241.614° WSW2025-07-01 17:28:00.648Z321.329° NNW43.365°2025-07-01 17:31:00.648Z44.958° NE
4 mins2025-07-01 22:23:00.648Z348.096° N2025-07-01 22:25:00.648Z28.508° NE17.78°2025-07-01 22:27:00.648Z64.696° ENE
5 mins2025-07-02 00:01:00.648Z308.323° NW2025-07-02 00:03:00.648Z253.029° W44.884°2025-07-02 00:06:00.648Z132.99° SE
|